Flag for U.S.A. Weather past 2 weeks in Kansas City, Missouri, U.S.A.

Now
93 °F

Sunny.


Feels Like: 106 °F
Forecast: 77 / 95 °F
Wind: 9 mph from Southeast

Location: Kansas City Downtown Airport

Current Time: Aug 22, 2014 at 5:27:17 PM

Latest Report: Aug 22, 2014 at 4:54 PM


Visibility: 10 mi

Pressure: 29.85 "Hg

Humidity: 58%

Dew point: 76 °F

Location of Kansas CityLocation

Historic Weather in Kansas City — Graph

°F

Kansas City temperature yesterday

Maximum temperature yesterday: 96 °F (at 3:54 PM)
Minimum temperature yesterday: 80 °F (at 3:54 AM)
Average temperature yesterday: 87 °F

Past Weeks' High & Low Weather Summary

 TemperatureHumidityPressure
High96 °F (Aug 21, 3:54 PM)93% (Aug 10, 6:54 AM)30.15 "Hg (Aug 10, 6:54 AM)
Low61 °F (Aug 13, 5:54 AM)40% (Aug 14, 5:54 PM)29.73 "Hg (Aug 19, 5:54 AM)
Average78 °F70%29.93 "Hg
* Reported Aug 7 3:54 PM — Aug 22 3:54 PM, Kansas City, Weather by CustomWeather, © 2014

Note: Actual official high and low records may vary slightly from our data, if they occured in-between our weather recording intervals... More about our weather records

Advertising

Kansas City weather history for previous 24 hours

 ConditionsComfort  
Time TempWeatherWind HumidityBarometerVisibility
3:54 PM
Aug 22
93 °FSunny.8 mph56%29.86 "Hg10 mi
2:54 PM92 °FSunny.9 mph56%29.88 "Hg10 mi
1:54 PM93 °FSunny.7 mph54%29.89 "Hg10 mi
12:54 PM91 °FSunny.6 mph54%29.89 "Hg10 mi
11:54 AM88 °FSunny.5 mph59%29.90 "Hg10 mi
10:54 AM86 °FSunny.6 mph63%29.90 "Hg10 mi
9:54 AM85 °FPartly sunny.3 mph63%29.93 "Hg10 mi
8:54 AM83 °FSunny.No wind68%29.92 "Hg10 mi
7:54 AM81 °FScattered clouds.3 mph69%29.90 "Hg10 mi
6:54 AM80 °FClear.8 mph71%29.88 "Hg10 mi
5:54 AM81 °FClear.9 mph72%29.85 "Hg10 mi
4:54 AM82 °FClear.12 mph70%29.86 "Hg10 mi
3:54 AM82 °FClear.13 mph70%29.88 "Hg10 mi
2:54 AM83 °FClear.13 mph68%29.86 "Hg10 mi
1:54 AM84 °FClear.14 mph65%29.85 "Hg10 mi
12:54 AM85 °FClear.15 mph63%29.88 "Hg10 mi
11:54 PM
Aug 21
86 °FClear.14 mph61%29.88 "Hg10 mi
10:54 PM88 °FClear.12 mph57%29.86 "Hg10 mi
9:54 PM89 °FClear.16 mph55%29.85 "Hg10 mi
8:54 PM91 °FSunny.12 mph52%29.83 "Hg10 mi
7:54 PM91 °FSunny.9 mph54%29.80 "Hg10 mi
6:54 PM94 °FSunny.15 mph48%29.80 "Hg10 mi
5:54 PM96 °FSunny.16 mph44%29.80 "Hg10 mi
Weather by CustomWeather, © 2014

See weather overviewHow to use our weather pages